Location: Pinhey's Point
(45.4411°N, 75.9539°W)
Time: 11:11:50
(UTC-04:00)

Iridium 65 - Visible Passes

Search period start: 03 September 2015 00:00
Search period end: 13 September 2015 00:00
Orbit: 776 x 779 km, 86.4° (Epoch: 02 September)

Date Brightness Start Highest point End Pass type
(mag) Time Alt. Az. Time Alt. Az. Time Alt. Az.
03 Sep 7.4 21:26:30 10° NE 21:28:52 14° ENE 21:28:52 14° ENE visible
03 Sep 6.2 23:05:25 10° N 23:09:21 51° NNW 23:09:21 51° NNW visible
04 Sep 6.1 22:31:55 10° N 22:35:55 47° NE 22:35:55 47° NE visible
05 Sep 7.8 00:13:49 10° NW 00:16:24 18° WNW 00:16:24 18° WNW visible
05 Sep 6.5 21:58:41 10° NNE 22:02:31 32° ENE 22:02:31 32° ENE visible
05 Sep 7.2 23:39:30 10° NNW 23:42:59 29° WNW 23:42:59 29° WNW visible
06 Sep 7.1 21:25:49 10° NNE 21:29:06 20° ENE 21:29:06 20° ENE visible
06 Sep 6.4 23:05:36 10° NNW 23:09:34 45° NW 23:09:34 45° NW visible
07 Sep 7.5 20:54:02 10° NE 20:55:29 11° ENE 20:55:42 11° ENE visible
07 Sep 5.9 22:31:58 10° N 22:36:10 58° N 22:36:10 58° N visible
08 Sep 8.1 00:14:53 10° NW 00:16:39 13° WNW 00:16:39 13° WNW visible
08 Sep 6.1 21:58:34 10° N 22:02:47 43° NE 22:02:47 43° NE visible
08 Sep 7.6 23:40:00 10° NNW 23:43:15 22° WNW 23:43:15 22° WNW visible
09 Sep 6.6 21:25:27 10° NNE 21:29:24 27° ENE 21:29:24 27° ENE visible
09 Sep 6.8 23:05:53 10° NNW 23:09:52 36° WNW 23:09:52 36° WNW visible
10 Sep 7.2 20:52:49 10° NNE 20:55:54 16° ENE 20:56:01 16° ENE visible
10 Sep 6.0 22:32:05 10° N 22:36:30 59° NW 22:36:30 59° NW visible
11 Sep 5.7 21:58:33 10° N 22:03:08 61° NE 22:03:08 61° NE visible
11 Sep 7.9 23:40:44 10° NW 23:43:36 16° WNW 23:43:36 16° WNW visible
12 Sep 6.1 21:25:15 10° NNE 21:29:47 37° ENE 21:29:47 37° ENE visible
12 Sep 7.2 23:06:16 10° NNW 23:10:15 28° WNW 23:10:15 28° WNW visible
